Location: Ward Pound Ridge Reservation
(41.2500°N, 73.6000°W)
Time: 01:58:54
(UTC-04:00)

Tiangong 2 - Pass Details

Date: 13 October 2017
Orbit: 388 x 391 km, 42.8° (Epoch: 22 October)

Event Time Altitude Azimuth Distance (km) Brightness Sun altitude
Exits shadow 04:21:11 10° 80° (E) 1,411 4.8 -31.1°
Drops below altitude 10° 04:21:16 10° 80° (E) 1,446 4.8 -31.1°
Sets 04:23:18 0° 76° (ENE) 2,279 6.1 -30.7°
